Airport METAR Information

LTBA 220350Z 13005KT CAVOK 25/23 Q1011 NOSIG

VATSIM Livefeed

Card image cap

ATC Bookings

No position booked

Card image cap

Active ATC

No controllers online

Blog

Read our latest news and get to know us better.